Flag for U.S.A. Weather past 2 weeks in Shreveport, Louisiana, U.S.A.

Now
78 °F

Overcast.


Feels Like: 81 °F
Forecast: 74 / 92 °F
Wind: No wind

Location: Shreveport Regional Airport

Current Time: Aug 29, 2014 at 5:32:28 AM

Latest Report: Aug 29, 2014 at 4:56 AM


Visibility: 10 mi

Pressure: 29.91 "Hg

Humidity: 82%

Dew point: 72 °F

Location of ShreveportLocation

Historic Weather in Shreveport — Graph

°F

Shreveport temperature yesterday

Maximum temperature yesterday: 95 °F (at 4:56 PM)
Minimum temperature yesterday: 73 °F (at 5:56 AM)
Average temperature yesterday: 84 °F

Past Weeks' High & Low Weather Summary

 TemperatureHumidityPressure
High98 °F (Aug 24, 3:56 PM)96% (Aug 23, 6:56 AM)30.09 "Hg (Aug 23, 6:56 AM)
Low64 °F (Aug 15, 5:56 AM)34% (Aug 27, 3:56 PM)29.85 "Hg (Aug 28, 6:56 PM)
Average83 °F67%29.96 "Hg
* Reported Aug 14 3:56 AM — Aug 29 3:56 AM, Shreveport, Weather by CustomWeather, © 2014

Note: Actual official high and low records may vary slightly from our data, if they occured in-between our weather recording intervals... More about our weather records

Advertising

Shreveport weather history for previous 24 hours

 ConditionsComfort  
Time TempWeatherWind HumidityBarometerVisibility
3:56 AM
Aug 29
78 °FPassing clouds.5 mph82%29.90 "Hg10 mi
2:56 AM79 °FPassing clouds.5 mph79%29.89 "Hg10 mi
1:56 AM79 °FPassing clouds.5 mph77%29.91 "Hg10 mi
12:56 AM80 °FPassing clouds.3 mph74%29.93 "Hg10 mi
11:56 PM
Aug 28
81 °FPassing clouds.5 mph69%29.93 "Hg10 mi
10:56 PM81 °FPassing clouds.7 mph69%29.92 "Hg10 mi
9:56 PM81 °FPassing clouds.7 mph67%29.91 "Hg10 mi
8:56 PM84 °FPassing clouds.6 mph61%29.88 "Hg10 mi
7:56 PM86 °FScattered clouds.7 mph57%29.87 "Hg10 mi
6:56 PM91 °FScattered clouds.9 mph50%29.85 "Hg10 mi
5:56 PM92 °FBroken clouds.6 mph46%29.86 "Hg10 mi
4:56 PM95 °FBroken clouds.7 mph40%29.87 "Hg10 mi
3:56 PM93 °FPartly sunny.10 mph42%29.88 "Hg10 mi
2:56 PM93 °FScattered clouds.7 mph44%29.91 "Hg10 mi
1:56 PM92 °FScattered clouds.8 mph47%29.93 "Hg10 mi
12:56 PM90 °FBroken clouds.5 mph52%29.95 "Hg10 mi
11:56 AM92 °FScattered clouds.6 mph49%29.97 "Hg10 mi
10:56 AM90 °FPartly sunny.5 mph54%29.98 "Hg10 mi
9:56 AM87 °FPassing clouds.No wind61%29.97 "Hg7 mi
9:03 AM82 °FHaze.No wind70%29.98 "Hg64 mi
8:56 AM82 °FPassing clouds.No wind70%29.97 "Hg7 mi
7:56 AM77 °FScattered clouds.No wind79%29.96 "Hg10 mi
6:56 AM73 °FPassing clouds.No wind84%29.96 "Hg10 mi
5:56 AM73 °FPassing clouds.No wind84%29.96 "Hg10 mi
Weather by CustomWeather, © 2014

See weather overviewHow to use our weather pages